Clopotiva

Romania     45˚29′43″N   22˚49′16″E
temp.,
°C
wind,
m/s
gust,
m/s
humid.,
%
clouds,
%
prec.,
mm/h
press.,
hPa
HPBL,
m
27 november, fri
fri2723:00+3˚ssw12450 0.0 102522
02:00+3˚ssw11450 0.0 102522
05:00+2˚ssw11480 0.0 102422
08:00+3˚ssw11500 0.0 102422
11:00+7˚nnw11490 0.0 1024125
14:00+7˚nnw115212 0.0 1023187
17:00+2˚wsw007088 0.0 102222
20:00+2˚sw116294 0.0 102222
28 november, sat
sat2823:00+1˚wsw1155100 0.0 102322
02:00wsw116371 0.0 102222
05:00wsw12710 0.0 102123
08:00wsw127850 0.0 102127
11:00+4˚nw126726 0.0 1020219
14:00+5˚nw126732 0.0 1019322
17:00w11895 0.0 101935
20:00wsw019529 0.3 101977
29 november, sun
sun2923:00nw1197100 0.3 1019101
02:00−1˚nnw119799 0.3 102087
05:00−2˚nw119798 0.0 102085
08:00−2˚ne019596 0.0 1020105
11:00n118384 0.0 1021266
14:00nne118187 0.0 1020340
17:00−2˚ne129477 0.0 1020115
20:00−3˚ne129579 0.0 1021112
30 november, mon
mon3023:00−3˚nne119592 0.0 1022105
02:00−3˚nnw119487 0.1 1023118
05:00−4˚n119297 0.2 1023151
08:00−4˚ne019397 0.4 1025130
11:00−3˚ne1182100 0.3 1026341
14:00−2˚ne127999 0.4 1025481
17:00−4˚ene129099 0.2 1027148
20:00−5˚e129299 0.3 1028132
1 december, tue
tue123:00−5˚e119250 0.0 102951
02:00−6˚e119326 0.0 102829
05:00−6˚ese119030 0.0 102825
08:00−6˚ese118549 0.0 102822
11:00−2˚nne116646 0.0 1028253
14:00−1˚nne116323 0.0 1025367
17:00−5˚ese11890 0.0 102521
20:00−5˚ese01860 0.0 102521